Location: Voyageurs National Park
(48.5020°N, 92.9292°W)
Time: 07:55:19
(UTC-05:00)

Amateur Radio Satellites - All Passes

Search period start: 25 July 2014 07:25
Search period end: 26 July 2014 07:25
Location: Voyageurs National Park, 48.5020°N, 92.9292°W

Satellite Date Start Highest point End Downlink Frequencies (MHz)
Time Altitude Azimuth
ISS 25 Jul 07:34:29 07:37:42 43° 212° (SSW) 07:40:55 145.800 FM
PCSat 25 Jul 07:38:35 07:40:24 12° 11° (N) 07:42:13 145.825 MHz
AO-7 25 Jul 07:43:16 07:50:30 34° 308° (NW) 07:57:41 29.400 - 29.500 MHz
JAS-2 25 Jul 07:54:51 08:01:18 86° 286° (WNW) 08:06:56 435.800 - 435.900 CW/SSB, 435.910 FM
MaSat-1 25 Jul 08:27:56 08:33:03 48° 248° (WSW) 08:38:00 437.345 MHz
Hamsat 25 Jul 08:38:39 08:41:47 20° 297° (WNW) 08:44:56 145.90 MHz
STRAND 1 25 Jul 08:44:36 08:46:56 13° 273° (W) 08:49:17 ?
Sapphire 25 Jul 08:47:41 08:51:19 18° 27° (NNE) 08:54:56 437.095 MHz 1200 baud AX-25 AFSK
SO-67 25 Jul 08:48:00 08:51:27 61° 286° (WNW) 08:54:53 435.3500 MHz FM
KITSAT 1 25 Jul 09:07:41 09:15:38 57° 315° (NW) 09:23:38 435.175 FM
HO-68 25 Jul 09:14:36 09:20:14 24° 91° (E) 09:25:50 435.675 MHz FM
PCSat 25 Jul 09:21:21 09:25:51 25° 36° (NE) 09:30:19 145.825 MHz
Saudisat 1A 25 Jul 09:35:25 09:39:49 71° 126° (SE) 09:44:15 436.775 MHz
AO-7 25 Jul 09:38:23 09:40:48 12° 333° (NNW) 09:43:12 29.400 - 29.500 MHz
JAS-2 25 Jul 09:41:09 09:45:21 19° 309° (NW) 09:49:15 435.800 - 435.900 CW/SSB, 435.910 FM
Oscar 11 25 Jul 09:49:01 09:51:05 13° 88° (E) 09:53:09 145.825 FM, Beacon 2401.500 USB
Sapphire 25 Jul 10:30:32 10:35:55 58° 50° (NE) 10:41:15 437.095 MHz 1200 baud AX-25 AFSK
UKube-1 25 Jul 10:33:44 10:38:05 65° 102° (ESE) 10:42:24 145.840 MHz, 145.915 MHz
HO-68 25 Jul 11:01:30 11:08:40 76° 291° (WNW) 11:15:47 435.675 MHz FM
PCSat 25 Jul 11:04:26 11:09:53 80° 238° (WSW) 11:15:18 145.825 MHz
KITSAT 1 25 Jul 11:06:21 11:12:55 26° 342° (NNW) 11:19:30 435.175 FM
Saudisat 1A 25 Jul 11:16:12 11:19:50 24° 326° (NW) 11:23:30 436.775 MHz
Oscar 11 25 Jul 11:23:28 11:27:48 73° 286° (WNW) 11:32:07 145.825 FM, Beacon 2401.500 USB
FUNcube-1 25 Jul 11:33:30 11:37:36 55° 100° (E) 11:41:42 145.950 - 145.970 MHz USB
Oscar 19 25 Jul 12:01:02 12:03:13 13° 53° (NE) 12:05:24 437.125 CW, 437.150 USB
JAS-1B 25 Jul 12:01:41 12:06:36 16° 35° (NE) 12:11:39 435.800 - 435.900 CW/SSB
UKube-1 25 Jul 12:11:01 12:13:51 17° 301° (WNW) 12:16:39 145.840 MHz, 145.915 MHz
Sapphire 25 Jul 12:14:31 12:19:00 27° 250° (WSW) 12:23:28 437.095 MHz 1200 baud AX-25 AFSK
RS-15 25 Jul 12:22:21 12:24:36 11° 92° (E) 12:26:51 29.354 - 29.394 USB, Beacon 29.352 USB
Oscar 16 25 Jul 12:26:46 12:30:30 21° 59° (ENE) 12:34:16 437.025 USB, Beacon 2401.1428
ITAMSAT 1 25 Jul 12:40:33 12:43:16 15° 53° (NE) 12:46:00 435.822 SSB
AO-Echo 25 Jul 12:47:44 12:51:00 17° 56° (NE) 12:54:17 ?
PCSat 25 Jul 12:49:49 12:52:26 14° 257° (WSW) 12:55:02 145.825 MHz
HO-68 25 Jul 12:50:26 12:55:19 20° 312° (NW) 13:00:11 435.675 MHz FM
AO-27 25 Jul 12:57:31 13:01:11 20° 57° (ENE) 13:04:51 436.795 MHz FM
Uribyol 2 25 Jul 12:59:42 13:03:30 21° 58° (ENE) 13:07:18 436.500 FM
Saudisat 1A 25 Jul 12:59:52 13:01:00 11° 350° (N) 13:02:07 436.775 MHz
Oscar 11 25 Jul 13:02:28 13:03:13 10° 305° (NW) 13:03:58 145.825 FM, Beacon 2401.500 USB
KITSAT 1 25 Jul 13:05:04 13:11:23 24° 12° (NNE) 13:17:41 435.175 FM
FUNcube-1 25 Jul 13:10:53 13:13:39 17° 299° (WNW) 13:16:24 145.950 - 145.970 MHz USB
AO-7 25 Jul 13:15:44 13:18:32 12° 29° (NNE) 13:21:19 29.400 - 29.500 MHz
SO-50 25 Jul 13:27:25 13:30:51 22° 114° (ESE) 13:34:21 436.795 FM
Oscar 19 25 Jul 13:36:35 13:41:40 71° 72° (ENE) 13:46:47 437.125 CW, 437.150 USB
JAS-1B 25 Jul 13:46:12 13:54:31 44° 58° (ENE) 14:03:35 435.800 - 435.900 CW/SSB
Oscar 16 25 Jul 14:04:19 14:09:24 67° 258° (WSW) 14:14:32 437.025 USB, Beacon 2401.1428
TMSAT-1 25 Jul 14:14:24 14:18:47 27° 61° (ENE) 14:23:11 436.925 FM
ITAMSAT 1 25 Jul 14:16:44 14:21:57 78° 73° (ENE) 14:27:12 435.822 SSB
RS-15 25 Jul 14:23:32 14:34:05 53° 115° (ESE) 14:44:28 29.354 - 29.394 USB, Beacon 29.352 USB
AO-Echo 25 Jul 14:23:43 14:29:02 88° 74° (ENE) 14:34:25 ?
AO-27 25 Jul 14:34:55 14:40:09 75° 256° (WSW) 14:45:24 436.795 MHz FM
Gurwin Techsat 1B 25 Jul 14:35:16 14:40:23 51° 68° (ENE) 14:45:32 435.225 FM
Uribyol 2 25 Jul 14:37:19 14:42:30 69° 257° (WSW) 14:47:42 436.500 FM
Saudisat 1A 25 Jul 14:40:51 14:42:34 12° 15° (NNE) 14:44:18 436.775 MHz
Uosat F 25 Jul 14:42:21 14:44:42 13° 53° (NE) 14:47:03 435.120 FM
KITSAT 1 25 Jul 15:01:16 15:09:02 47° 40° (NE) 15:16:45 435.175 FM
AO-7 25 Jul 15:01:34 15:08:55 36° 53° (NE) 15:16:16 29.400 - 29.500 MHz
SO-50 25 Jul 15:06:37 15:11:03 58° 314° (NW) 15:15:36 436.795 FM
Oscar 19 25 Jul 15:18:10 15:21:33 18° 271° (W) 15:24:58 437.125 CW, 437.150 USB
JAS-1B 25 Jul 15:35:54 15:44:35 62° 261° (W) 15:54:22 435.800 - 435.900 CW/SSB
UOSAT-12 25 Jul 15:49:03 15:53:19 39° 119° (ESE) 15:57:41 437.025 FM, 437.400 FM
TMSAT-1 25 Jul 15:53:17 15:58:26 52° 260° (W) 16:03:38 436.925 FM
ITAMSAT 1 25 Jul 15:58:51 16:02:04 16° 271° (W) 16:05:19 435.822 SSB
AO-Echo 25 Jul 16:05:37 16:08:32 15° 273° (W) 16:11:28 ?
Gurwin Techsat 1B 25 Jul 16:16:13 16:20:38 26° 267° (W) 16:25:04 435.225 FM
Uosat F 25 Jul 16:17:37 16:22:39 75° 72° (ENE) 16:27:43 435.120 FM
AO-27 25 Jul 16:19:12 16:20:35 11° 275° (W) 16:21:57 436.795 MHz FM
Saudisat 1A 25 Jul 16:19:34 16:23:32 31° 38° (NE) 16:27:28 436.775 MHz
JAS-2 25 Jul 16:27:16 16:32:07 19° 51° (NE) 16:36:46 435.800 - 435.900 CW/SSB, 435.910 FM
RS-15 25 Jul 16:35:30 16:46:23 60° 320° (NW) 16:57:13 29.354 - 29.394 USB, Beacon 29.352 USB
SO-50 25 Jul 16:49:34 16:52:34 17° 336° (NNW) 16:55:38 436.795 FM
OPAL 25 Jul 16:52:00 16:56:39 36° 99° (E) 17:01:19 ?
AO-7 25 Jul 16:52:54 17:01:14 68° 255° (WSW) 17:09:36 29.400 - 29.500 MHz
KITSAT 1 25 Jul 16:56:50 17:04:44 59° 243° (WSW) 17:12:33 435.175 FM
UOSAT-12 25 Jul 17:29:09 17:33:30 38° 319° (NW) 17:37:57 437.025 FM, 437.400 FM
JAS-1B 25 Jul 17:32:21 17:37:17 16° 284° (WNW) 17:42:30 435.800 - 435.900 CW/SSB
Uosat F 25 Jul 17:58:52 18:02:01 16° 271° (W) 18:05:11 435.120 FM
Hamsat 25 Jul 17:58:56 18:03:01 56° 72° (ENE) 18:07:09 145.90 MHz
Saudisat 1A 25 Jul 17:59:03 18:03:18 47° 238° (WSW) 18:07:30 436.775 MHz
JAS-2 25 Jul 18:08:17 18:16:01 67° 70° (ENE) 18:23:17 435.800 - 435.900 CW/SSB, 435.910 FM
OPAL 25 Jul 18:30:57 18:35:31 36° 297° (WNW) 18:40:07 ?
SO-50 25 Jul 18:33:47 18:35:03 11° 1° (N) 18:36:20 436.795 FM
AO-7 25 Jul 18:51:11 18:55:38 15° 276° (W) 19:00:06 29.400 - 29.500 MHz
RS-15 25 Jul 18:51:41 19:01:26 35° 352° (N) 19:11:15 29.354 - 29.394 USB, Beacon 29.352 USB
KITSAT 1 25 Jul 18:55:31 18:58:23 12° 264° (W) 19:01:15 435.175 FM
STRAND 1 25 Jul 19:09:15 19:13:22 24° 93° (E) 19:17:26 ?
UOSAT-12 25 Jul 19:12:23 19:14:57 14° 342° (NNW) 19:17:33 437.025 FM, 437.400 FM
SO-67 25 Jul 19:24:30 19:27:58 78° 76° (ENE) 19:31:27 435.3500 MHz FM
Hamsat 25 Jul 19:36:47 19:39:22 16° 270° (W) 19:41:58 145.90 MHz
HO-68 25 Jul 19:47:30 19:53:30 30° 55° (NE) 19:59:29 435.675 MHz FM
JAS-2 25 Jul 19:54:41 20:01:26 31° 268° (W) 20:07:55 435.800 - 435.900 CW/SSB, 435.910 FM
UKube-1 25 Jul 19:59:32 20:01:34 13° 56° (ENE) 20:03:36 145.840 MHz, 145.915 MHz
SO-50 25 Jul 20:14:15 20:17:30 18° 26° (NNE) 20:20:47 436.795 FM
Oscar 11 25 Jul 20:47:39 20:50:34 18° 61° (ENE) 20:53:29 145.825 FM, Beacon 2401.500 USB
STRAND 1 25 Jul 20:47:53 20:52:51 52° 291° (WNW) 20:57:47 ?
UOSAT-12 25 Jul 20:55:22 20:57:08 12° 7° (N) 20:58:53 437.025 FM, 437.400 FM
FUNcube-1 25 Jul 21:01:47 21:02:06 10° 56° (NE) 21:02:26 145.950 - 145.970 MHz USB
RS-15 25 Jul 21:06:56 21:17:15 43° 26° (NNE) 21:27:46 29.354 - 29.394 USB, Beacon 29.352 USB
UKube-1 25 Jul 21:32:45 21:37:07 89° 255° (WSW) 21:41:32 145.840 MHz, 145.915 MHz
HO-68 25 Jul 21:33:32 21:40:41 71° 255° (WSW) 21:47:52 435.675 MHz FM
SO-50 25 Jul 21:54:16 21:58:58 62° 47° (NE) 22:03:44 436.795 FM
Oscar 11 25 Jul 22:22:07 22:26:21 58° 259° (W) 22:30:38 145.825 FM, Beacon 2401.500 USB
MaSat-1 25 Jul 22:23:05 22:26:53 39° 110° (ESE) 22:31:17 437.345 MHz
FUNcube-1 25 Jul 22:33:26 22:37:46 73° 74° (ENE) 22:42:02 145.950 - 145.970 MHz USB
UOSAT-12 25 Jul 22:35:09 22:38:59 24° 31° (NNE) 22:42:48 437.025 FM, 437.400 FM
UKube-1 25 Jul 23:13:02 23:14:00 11° 273° (W) 23:14:58 145.840 MHz, 145.915 MHz
RS-15 25 Jul 23:19:51 23:30:54 86° 234° (SW) 23:42:18 29.354 - 29.394 USB, Beacon 29.352 USB
HO-68 25 Jul 23:26:06 23:29:41 14° 276° (W) 23:33:17 435.675 MHz FM
SO-50 25 Jul 23:35:31 23:39:11 23° 246° (WSW) 23:42:54 436.795 FM
Lituanica SAT-1 25 Jul 23:48:15 23:49:19 13° 142° (SE) 23:50:24 437.275 MHz beacon
MaSat-1 26 Jul 00:00:27 00:04:21 32° 313° (NW) 00:08:45 437.345 MHz
FUNcube-1 26 Jul 00:12:39 00:14:40 13° 272° (W) 00:16:41 145.950 - 145.970 MHz USB
UOSAT-12 26 Jul 00:14:57 00:19:43 84° 233° (SW) 00:24:25 437.025 FM, 437.400 FM
Sapphire 26 Jul 01:17:21 01:21:30 23° 108° (ESE) 01:25:40 437.095 MHz 1200 baud AX-25 AFSK
Lituanica SAT-1 26 Jul 01:19:29 01:21:32 76° 342° (NNW) 01:23:35 437.275 MHz beacon
RS-15 26 Jul 01:33:20 01:41:45 26° 258° (WSW) 01:50:25 29.354 - 29.394 USB, Beacon 29.352 USB
MaSat-1 26 Jul 01:43:13 01:43:22 10° 337° (NNW) 01:43:31 437.345 MHz
Oscar 19 26 Jul 01:45:14 01:48:51 19° 90° (E) 01:52:27 437.125 CW, 437.150 USB
PCSat 26 Jul 01:49:55 01:55:00 43° 115° (ESE) 02:00:07 145.825 MHz
ISS 26 Jul 01:55:15 01:58:26 43° 148° (SSE) 02:01:39 145.800 FM
UOSAT-12 26 Jul 01:56:55 01:59:08 13° 251° (WSW) 02:01:20 437.025 FM, 437.400 FM
Oscar 16 26 Jul 02:12:20 02:16:58 33° 96° (E) 02:21:36 437.025 USB, Beacon 2401.1428
ITAMSAT 1 26 Jul 02:26:39 02:30:31 21° 91° (E) 02:34:21 435.822 SSB
AO-Echo 26 Jul 02:28:12 02:32:12 22° 91° (E) 02:36:05 ?
OPAL 26 Jul 02:34:19 02:37:27 17° 54° (NE) 02:40:35 ?
AO-27 26 Jul 02:44:31 02:49:03 30° 95° (E) 02:53:33 436.795 MHz FM
Uribyol 2 26 Jul 02:46:29 02:51:06 32° 95° (E) 02:55:41 436.500 FM
Gurwin Techsat 1B 26 Jul 02:48:58 02:51:56 15° 87° (E) 02:54:53 435.225 FM
Lituanica SAT-1 26 Jul 02:52:18 02:54:11 30° 359° (N) 02:56:04 437.275 MHz beacon
Sapphire 26 Jul 02:59:04 03:04:27 67° 308° (NW) 03:09:53 437.095 MHz 1200 baud AX-25 AFSK
JAS-1B 26 Jul 03:17:58 03:27:12 46° 94° (E) 03:35:17 435.800 - 435.900 CW/SSB
Oscar 19 26 Jul 03:23:33 03:28:41 67° 288° (WNW) 03:33:49 437.125 CW, 437.150 USB
ISS 26 Jul 03:31:48 03:35:08 58° 347° (NNW) 03:38:28 145.800 FM
PCSat 26 Jul 03:33:26 03:38:30 39° 316° (NW) 03:43:36 145.825 MHz
Oscar 16 26 Jul 03:51:38 03:56:23 39° 294° (WNW) 04:01:09 437.025 USB, Beacon 2401.1428
TMSAT-1 26 Jul 04:05:06 04:10:14 48° 99° (E) 04:15:20 436.925 FM
ITAMSAT 1 26 Jul 04:05:19 04:10:26 61° 290° (WNW) 04:15:31 435.822 SSB
AO-Echo 26 Jul 04:06:17 04:11:21 55° 290° (WNW) 04:16:13 ?
OPAL 26 Jul 04:10:46 04:15:43 84° 253° (WSW) 04:20:43 ?
Uosat F 26 Jul 04:22:41 04:25:57 17° 90° (E) 04:29:12 435.120 FM
AO-27 26 Jul 04:23:49 04:28:43 43° 293° (WNW) 04:33:35 436.795 MHz FM
Lituanica SAT-1 26 Jul 04:24:49 04:26:50 61° 17° (NNE) 04:28:52 437.275 MHz beacon
Uribyol 2 26 Jul 04:25:52 04:30:41 40° 294° (WNW) 04:35:27 436.500 FM
Gurwin Techsat 1B 26 Jul 04:27:16 04:32:37 86° 286° (WNW) 04:37:56 435.225 FM
Sapphire 26 Jul 04:45:05 04:48:55 19° 330° (NNW) 04:52:46 437.095 MHz 1200 baud AX-25 AFSK
AO-7 26 Jul 04:50:26 04:57:52 34° 95° (E) 05:05:13 29.400 - 29.500 MHz
MaSat-1 26 Jul 05:01:34 05:03:17 11° 26° (NNE) 05:05:00 437.345 MHz
Oscar 19 26 Jul 05:05:04 05:07:07 12° 308° (NW) 05:09:09 437.125 CW, 437.150 USB
JAS-1B 26 Jul 05:08:27 05:17:52 56° 297° (WNW) 05:26:13 435.800 - 435.900 CW/SSB
ISS 26 Jul 05:08:52 05:12:10 50° 7° (N) 05:15:28 145.800 FM
PCSat 26 Jul 05:20:38 05:23:29 14° 340° (NNW) 05:26:21 145.825 MHz
KITSAT 1 26 Jul 05:39:04 05:42:31 13° 97° (E) 05:45:58 435.175 FM
TMSAT-1 26 Jul 05:45:27 05:49:57 29° 298° (WNW) 05:54:26 436.925 FM
ITAMSAT 1 26 Jul 05:47:19 05:48:56 11° 309° (NW) 05:50:33 435.822 SSB
AO-Echo 26 Jul 05:48:22 05:48:59 10° 310° (NW) 05:49:35 ?
OPAL 26 Jul 05:53:36 05:55:24 12° 271° (W) 05:57:11 ?
Lituanica SAT-1 26 Jul 05:57:41 05:59:05 16° 216° (SW) 06:00:29 437.275 MHz beacon
Uosat F 26 Jul 06:00:15 06:05:17 71° 288° (WNW) 06:10:16 435.120 FM
Gurwin Techsat 1B 26 Jul 06:08:42 06:11:51 16° 305° (NW) 06:14:59 435.225 FM
STRAND 1 26 Jul 06:28:36 06:33:34 51° 69° (ENE) 06:38:33 ?
Sapphire 26 Jul 06:33:30 06:34:39 11° 357° (N) 06:35:48 437.095 MHz 1200 baud AX-25 AFSK
MaSat-1 26 Jul 06:37:19 06:42:12 35° 48° (NE) 06:47:01 437.345 MHz
AO-7 26 Jul 06:42:56 06:51:11 65° 296° (WNW) 06:59:21 29.400 - 29.500 MHz
ISS 26 Jul 06:45:39 06:49:00 64° 207° (SSW) 06:52:20 145.800 FM
JAS-1B 26 Jul 07:00:05 07:06:12 19° 320° (NW) 07:12:02 435.800 - 435.900 CW/SSB
JAS-2 26 Jul 07:00:11 07:06:00 39° 94° (E) 07:11:11 435.800 - 435.900 CW/SSB, 435.910 FM
PCSat 26 Jul 07:08:02 07:09:26 11° 7° (N) 07:10:50 145.825 MHz
Hamsat 26 Jul 07:16:34 07:20:51 71° 102° (ESE) 07:25:09 145.90 MHz
